Location: ????????
(56.1167°N, 38.6333°E)
Time: 07:48:33
(UTC+00:00)

Cosmos 2034 Rocket - Visible Passes

Search period start: 12 February 2026 00:00
Search period end: 22 February 2026 00:00
Orbit: 956 x 1001 km, 82.9° (Epoch: 11 February)

Date Brightness Start Highest point End Pass type
(mag) Time Alt. Az. Time Alt. Az. Time Alt. Az.
12 Feb 4.7 15:30:49 10° N 15:36:11 30° ENE 15:41:33 10° ESE visible
12 Feb 4.2 17:16:04 10° NNW 17:22:13 71° W 17:28:22 10° S visible
12 Feb 6.4 19:02:57 10° NW 19:06:36 17° WNW 19:10:16 10° WSW visible
13 Feb 4.2 15:56:55 10° N 16:02:50 45° ENE 16:08:44 10° SE visible
13 Feb 5.0 17:42:32 10° NNW 17:48:20 45° W 17:54:10 10° SSW visible
14 Feb 6.8 03:55:04 10° E 03:57:37 13° ENE 04:00:09 10° NE visible
14 Feb 3.9 16:23:08 10° N 16:29:18 70° ENE 16:35:29 10° SSE visible
14 Feb 5.8 18:09:09 10° NNW 18:14:18 28° W 18:19:27 10° SW visible
15 Feb 4.8 15:04:14 10° N 15:09:28 28° ENE 15:14:42 10° ESE visible
15 Feb 4.1 16:49:25 10° NNW 16:55:37 77° W 17:01:48 10° S visible
15 Feb 6.4 18:36:08 10° NW 18:40:05 18° WNW 18:44:03 10° WSW visible
16 Feb 4.3 15:30:18 10° N 15:36:09 42° ENE 15:41:59 10° SE visible
16 Feb 4.9 17:15:51 10° NNW 17:21:45 49° W 17:27:40 10° SSW visible
16 Feb 6.9 19:04:19 10° NW 19:05:43 11° WNW 19:07:07 10° W visible
17 Feb 7.0 03:29:10 10° E 03:31:07 12° ENE 03:33:03 10° NE visible
17 Feb 4.0 15:56:30 10° N 16:02:39 65° ENE 16:08:49 10° SSE visible
17 Feb 5.7 17:42:27 10° NNW 17:47:44 31° W 17:53:03 10° SW visible
18 Feb 6.7 03:52:37 10° ESE 03:56:45 19° ENE 04:00:54 10° NE visible
18 Feb 4.0 16:22:46 10° NNW 16:28:59 83° W 16:35:13 10° S visible
18 Feb 6.4 18:09:19 10° NNW 18:13:34 20° WNW 18:17:48 10° WSW visible
19 Feb 4.8 16:49:11 10° NNW 16:55:10 53° W 17:01:10 10° SSW visible
19 Feb 6.9 18:37:02 10° NW 18:39:13 12° WNW 18:41:24 10° W visible
20 Feb 7.3 03:03:36 10° ENE 03:04:37 10° ENE 03:05:37 10° ENE visible
20 Feb 4.0 15:29:52 10° N 15:36:00 60° ENE 15:42:09 10° SSE visible
20 Feb 5.6 17:15:44 10° NNW 17:21:11 34° W 17:26:39 10° SSW visible
21 Feb 6.8 03:26:23 10° ESE 03:30:14 18° ENE 03:34:06 10° NE visible
21 Feb 4.0 15:56:08 10° NNW 16:02:22 89° WSW 16:08:37 10° S visible
21 Feb 6.4 17:42:32 10° NNW 17:47:01 21° WNW 17:51:33 10° SW visible
